When you browse on this site, cookies collect data to enhance your experience and personalize the content and advertising you see.
Visit our Privacy Policy to learn more. By continuing to use the site, you agree to this use of cookies and data.

Hourly Weather San Luis

Today, 21 September, Monday

Time Temperature Precipitation Wind Pressure Humidity
00:00 +11°C° 0 mm 3 mps 703 mmHg 24%
01:00 +11°C° 0 mm 3 mps 702 mmHg 25%
02:00 +11°C° 0 mm 3 mps 702 mmHg 26%
03:00 +11°C° 0 mm 4 mps 702 mmHg 29%
04:00 +11°C° 0 mm 4 mps 702 mmHg 33%
05:00 +9°C° 0 mm 5 mps 702 mmHg 36%
06:00 +11°C° 0 mm 6 mps 702 mmHg 33%
07:00 +14°C° 0 mm 6 mps 703 mmHg 30%
08:00 +15°C° 0 mm 7 mps 703 mmHg 27%
09:00 +17°C° 0 mm 7 mps 703 mmHg 25%
10:00 +20°C° 0 mm 7 mps 703 mmHg 22%
11:00 +22°C° 0 mm 7 mps 703 mmHg 20%
12:00 +23°C° 0 mm 7 mps 702 mmHg 19%
13:00 +23°C° 0 mm 7 mps 701 mmHg 18%
14:00 +24°C° 0 mm 7 mps 701 mmHg 17%
15:00 +24°C° 0 mm 7 mps 700 mmHg 18%
16:00 +24°C° 0 mm 7 mps 699 mmHg 18%
17:00 +23°C° 0 mm 7 mps 698 mmHg 19%
18:00 +21°C° 0 mm 7 mps 698 mmHg 21%
19:00 +19°C° 0 mm 6 mps 698 mmHg 24%
20:00 +16°C° 0 mm 5 mps 698 mmHg 27%
21:00 +16°C° 0 mm 6 mps 698 mmHg 25%
22:00 +15°C° 0 mm 7 mps 698 mmHg 24%
23:00 +15°C° 0 mm 7 mps 698 mmHg 23%

Tomorrow, 22 September, Tuesday

Time Temperature Precipitation Wind Pressure Humidity
00:00 +15°C° 0 mm 7 mps 698 mmHg 24%
01:00 +14°C° 0 mm 7 mps 698 mmHg 25%
02:00 +13°C° 0 mm 8 mps 698 mmHg 26%
03:00 +14°C° 0 mm 7 mps 698 mmHg 27%
04:00 +12°C° 0 mm 7 mps 697 mmHg 28%
05:00 +13°C° 0 mm 6 mps 697 mmHg 29%
06:00 +14°C° 0 mm 7 mps 698 mmHg 27%
07:00 +16°C° 0 mm 7 mps 698 mmHg 25%
08:00 +17°C° 0 mm 7 mps 699 mmHg 23%
09:00 +20°C° 0 mm 6 mps 699 mmHg 21%
10:00 +22°C° 0 mm 6 mps 699 mmHg 19%
11:00 +23°C° 0 mm 6 mps 699 mmHg 17%
12:00 +25°C° 0 mm 5 mps 699 mmHg 17%
13:00 +26°C° 0 mm 5 mps 698 mmHg 16%
14:00 +27°C° 0 mm 5 mps 698 mmHg 15%
15:00 +27°C° 0 mm 4 mps 698 mmHg 15%
16:00 +27°C° 0 mm 4 mps 697 mmHg 16%
17:00 +27°C° 0 mm 4 mps 697 mmHg 16%
18:00 +23°C° 0 mm 4 mps 697 mmHg 20%
19:00 +20°C° 0 mm 3 mps 697 mmHg 25%
20:00 +18°C° 0 mm 3 mps 697 mmHg 29%
21:00 +17°C° 0 mm 3 mps 697 mmHg 31%
22:00 +16°C° 0 mm 2 mps 697 mmHg 33%
23:00 +15°C° 0 mm 2 mps 697 mmHg 35%

Day after tomorrow, 23 September, Wednesday

Time Temperature Precipitation Wind Pressure Humidity
00:00 +16°C° 0 mm 3 mps 697 mmHg 34%
01:00 +15°C° 0 mm 4 mps 697 mmHg 34%
02:00 +15°C° 0 mm 4 mps 697 mmHg 33%
03:00 +15°C° 0 mm 4 mps 697 mmHg 34%
04:00 +14°C° 0 mm 3 mps 697 mmHg 36%
05:00 +14°C° 0 mm 3 mps 697 mmHg 37%
06:00 +17°C° 0 mm 3 mps 698 mmHg 34%
07:00 +18°C° 0 mm 3 mps 698 mmHg 31%
08:00 +20°C° 0 mm 3 mps 699 mmHg 28%
09:00 +22°C° 0 mm 3 mps 699 mmHg 25%
10:00 +25°C° 0 mm 3 mps 699 mmHg 23%
11:00 +26°C° 0 mm 4 mps 699 mmHg 21%
12:00 +27°C° 0 mm 4 mps 699 mmHg 20%
13:00 +28°C° 0 mm 4 mps 698 mmHg 19%
14:00 +29°C° 0 mm 4 mps 698 mmHg 17%
15:00 +29°C° 0 mm 3 mps 697 mmHg 18%
16:00 +29°C° 0 mm 3 mps 697 mmHg 18%
17:00 +29°C° 0 mm 3 mps 696 mmHg 19%
18:00 +26°C° 0 mm 3 mps 696 mmHg 25%
19:00 +22°C° 0 mm 3 mps 696 mmHg 31%
20:00 +19°C° 0 mm 3 mps 696 mmHg 37%
21:00 +18°C° 0 mm 3 mps 696 mmHg 39%
22:00 +18°C° 0 mm 2 mps 696 mmHg 40%
23:00 +17°C° 0 mm 2 mps 696 mmHg 42%

24 September, Thursday

Time Temperature Precipitation Wind Pressure Humidity
00:00 +17°C° 0 mm 2 mps 696 mmHg 43%
01:00 +17°C° 0 mm 3 mps 695 mmHg 44%
02:00 +17°C° 0 mm 3 mps 695 mmHg 45%
03:00 +17°C° 0 mm 3 mps 695 mmHg 48%
04:00 +17°C° 0 mm 2 mps 695 mmHg 51%
05:00 +16°C° 0 mm 2 mps 694 mmHg 54%
06:00 +18°C° 0 mm 2 mps 695 mmHg 49%
07:00 +20°C° 0 mm 2 mps 695 mmHg 44%
08:00 +23°C° 0 mm 2 mps 696 mmHg 39%
09:00 +25°C° 0 mm 3 mps 696 mmHg 36%
10:00 +27°C° 0 mm 4 mps 696 mmHg 34%
11:00 +29°C° 0 mm 4 mps 696 mmHg 32%
12:00 +29°C° 0 mm 4 mps 695 mmHg 31%
13:00 +30°C° 0 mm 4 mps 695 mmHg 29%
14:00 +32°C° 0 mm 4 mps 694 mmHg 28%
15:00 +30°C° 0 mm 4 mps 694 mmHg 28%
16:00 +30°C° 0 mm 4 mps 693 mmHg 28%
17:00 +29°C° 0 mm 4 mps 693 mmHg 29%
18:00 +26°C° 0.1 mm 5 mps 693 mmHg 43%
19:00 +22°C° 0.1 mm 6 mps 693 mmHg 58%
20:00 +18°C° 0.1 mm 7 mps 694 mmHg 73%
21:00 +18°C° 0.2 mm 7 mps 694 mmHg 78%
22:00 +17°C° 0.2 mm 6 mps 694 mmHg 82%
23:00 +16°C° 0.2 mm 6 mps 694 mmHg 87%

25 September, Friday

Time Temperature Precipitation Wind Pressure Humidity
00:00 +16°C° 0.2 mm 6 mps 694 mmHg 87%
01:00 +16°C° 0.2 mm 5 mps 694 mmHg 87%
02:00 +16°C° 0.2 mm 5 mps 694 mmHg 88%
03:00 +16°C° 0.4 mm 5 mps 694 mmHg 87%
04:00 +17°C° 0.4 mm 5 mps 694 mmHg 87%
05:00 +17°C° 0.4 mm 5 mps 694 mmHg 87%
06:00 +16°C° 0.4 mm 5 mps 695 mmHg 88%
07:00 +16°C° 0.4 mm 6 mps 695 mmHg 88%
08:00 +15°C° 0.4 mm 7 mps 695 mmHg 89%
09:00 +15°C° 0.5 mm 8 mps 696 mmHg 86%
10:00 +15°C° 0.5 mm 8 mps 696 mmHg 83%
11:00 +15°C° 0.5 mm 9 mps 696 mmHg 80%
12:00 +13°C° 0.3 mm 8 mps 696 mmHg 79%
13:00 +13°C° 0.3 mm 8 mps 697 mmHg 78%
14:00 +14°C° 0.3 mm 7 mps 697 mmHg 77%
15:00 +12°C° 0.1 mm 7 mps 697 mmHg 78%
16:00 +12°C° 0.1 mm 8 mps 697 mmHg 79%
17:00 +12°C° 0.1 mm 9 mps 698 mmHg 80%
18:00 +11°C° 0.1 mm 9 mps 698 mmHg 81%
19:00 +10°C° 0.1 mm 9 mps 699 mmHg 82%
20:00 +8°C° 0.1 mm 9 mps 699 mmHg 83%
21:00 +9°C° 0 mm 7 mps 699 mmHg 84%
22:00 +9°C° 0 mm 6 mps 700 mmHg 85%
23:00 +10°C° 0 mm 4 mps 700 mmHg 86%

26 September, Saturday

Time Temperature Precipitation Wind Pressure Humidity
00:00 +10°C° 0.1 mm 4 mps 700 mmHg 87%
01:00 +10°C° 0.1 mm 4 mps 699 mmHg 88%
02:00 +10°C° 0.1 mm 4 mps 699 mmHg 88%
03:00 +9°C° 0.1 mm 5 mps 699 mmHg 88%
04:00 +9°C° 0.1 mm 5 mps 699 mmHg 88%
05:00 +9°C° 0.1 mm 6 mps 699 mmHg 88%
06:00 +9°C° 0 mm 5 mps 700 mmHg 84%
07:00 +11°C° 0 mm 4 mps 700 mmHg 81%
08:00 +11°C° 0 mm 3 mps 700 mmHg 77%
09:00 +13°C° 0 mm 3 mps 700 mmHg 67%
10:00 +14°C° 0 mm 4 mps 701 mmHg 58%
11:00 +16°C° 0 mm 5 mps 701 mmHg 48%
12:00 +18°C° 0 mm 4 mps 700 mmHg 42%
13:00 +20°C° 0 mm 3 mps 700 mmHg 36%
14:00 +21°C° 0 mm 3 mps 700 mmHg 29%
15:00 +21°C° 0 mm 3 mps 699 mmHg 28%
16:00 +21°C° 0 mm 3 mps 699 mmHg 26%
17:00 +21°C° 0 mm 3 mps 698 mmHg 25%
18:00 +20°C° 0 mm 3 mps 698 mmHg 29%
19:00 +18°C° 0 mm 3 mps 698 mmHg 33%
20:00 +16°C° 0 mm 3 mps 698 mmHg 37%
21:00 +16°C° 0 mm 3 mps 698 mmHg 39%
22:00 +14°C° 0 mm 3 mps 698 mmHg 40%
23:00 +15°C° 0 mm 2 mps 698 mmHg 42%
Show more